Regional Weather Roundup
Issued by NWS

Home | Current Version | Previous Version | Graphics & Text | Print | Product List | Glossary On
Versions: 1 2 3 4 5 6 7 8 9 10 11 12 13 14 15 16 17 18 19 20 21 22 23 24 25 26 27 28 29 30 31 32 33 34 35 36 37 38 39 40 41 42 43 44 45 46 47 48 49 50
000
ASUS43 KLSX 260159
RWRMO

WEATHER SUMMARY FOR MISSOURI
NATIONAL WEATHER SERVICE SPRINGFIELD MO
800 PM CST THU DEC 25 2014

NOTE: "FAIR" INDICATES FEW OR NO CLOUDS BELOW 12,000 FEET WITH NO
       SIGNIFICANT WEATHER AND/OR OBSTRUCTIONS TO VISIBILITY.
       CURRENT SKY AND/OR WEATHER CONDITIONS ARE NOT AVAILABLE FOR
       CHILLICOTHE AND FARMINGTON.

MOZ001>031-035>038-043-044-053-054-260300-
...NORTHERN AND WESTERN MISSOURI...

CITY           SKY/WX    TMP DP  RH WIND       PRES   REMARKS
KANSAS CTY INT CLOUDY    49  30  48 S18G26    29.75R
KANSAS C DTWN  CLOUDY    51  30  44 S15       29.77R
LEE`S SUMMIT   CLOUDY    49  30  48 S13G23    29.78R
ST JOSEPH      CLOUDY    47  31  53 S13       29.74R
CHILLICOTHE      N/A     49  31  49 S10       29.80R
KIRKSVILLE     MOCLDY    42  31  64 S12       29.83R

$$
MOZ066>068-077>081-088>096-101>105-260300-
...SOUTHWEST MISSOURI...

CITY           SKY/WX    TMP DP  RH WIND       PRES   REMARKS
SPRINGFIELD    CLOUDY    47  28  47 S25G32    29.86F
JOPLIN         CLOUDY    50  27  40 S21G30    29.85R

$$
MOZ032>034-039>042-045>050-055>058-069>072-260300-
...CENTRAL MISSOURI...

CITY           SKY/WX    TMP DP  RH WIND       PRES   REMARKS
COLUMBIA       PTCLDY    46  31  55 S21G30    29.86R
JEFFERSON CITY PTCLDY    47  30  51 SE10G20   29.90R
ROLLA          MOCLDY    44  31  60 S20       29.90R
SEDALIA        MOCLDY    48  30  49 S21       29.83R
WARRENSBURG    CLOUDY    46  30  53 S9        29.81R
OSAGE BEACH    CLOUDY    46  28  49 S13G21    29.89S

$$
MOZ051-052-059>065-260300-
...EAST CENTRAL MISSOURI...

CITY           SKY/WX    TMP DP  RH WIND       PRES   REMARKS
ST LOUIS INTL  MOCLDY    47  33  58 S13G24    29.99R
SPIRIT OF STL  CLEAR     46  34  62 S10G20    29.97R
ST CHARLES     PTCLDY    44  34  67 S16       29.98R

$$
MOZ072>076-082>087-097>100-106>115-260300-
...SOUTH CENTRAL AND SOUTHEAST MISSOURI...

CITY           SKY/WX    TMP DP  RH WIND       PRES   REMARKS
CAPE GIRARDEAU CLEAR     42  35  76 S9        30.08S
FARMINGTON     PTCLDY    43  36  75 SE12      30.02S
POPLAR BLUFF   MOCLDY    46  34  62 S13       30.06F
WEST PLAINS    PTCLDY    43  32  65 S8        30.01R

$$


USA.gov is the U.S. government's official web portal to all federal, state and local government web resources and services.